Location: Ferchesar
(52.6477°N, 12.4298°E)
Time: 06:07:17
(UTC+01:00)

Tiros 1 - Pass Details

Date: 11 December 2021
Orbit: 629 x 664 km, 48.4° (Epoch: 25 January)

Event Time Altitude Azimuth Distance (km) Brightness Sun altitude
Rises 17:42:49 0° 247° (WSW) 2,914 12.4 -15.1°
Reaches altitude 10° 17:45:11 10° 241° (WSW) 2,010 11.0 -15.4°
Maximum altitude 17:49:36 46° 169° (S) 857 7.8 -16.1°
Enters shadow 17:52:04 24° 108° (ESE) 1,334 8.3 -16.4°
